PAL537 RPLL-WADD

Flight info

Callsign PAL537
Flight time 3h 22m
Altitude 34000
Route BUCAL2R BUCAL M646 VJN M522 DOBMA
Aircraft A321/M-SDE3FGHIRWY/LB1

Departure

Time 2026-04-30 07:30
Airport Ninoy Aquino International Airport (RPLL)

Arrival

Time 2026-04-30 10:53
Airport Denpasar I Gusti Ngurah Rai International Airport (WADD)
Time Latitude Longitude Altitude Speed Heading
2026-04-30 06:52 14.50878 121.01372 62 ft 0 kts 330°
2026-04-30 07:20 14.50865 121.01380 59 ft 4 kts 330°
2026-04-30 07:20 14.50847 121.01390 62 ft 4 kts 330°
2026-04-30 07:20 14.50825 121.01403 59 ft 4 kts 326°
2026-04-30 07:21 14.50812 121.01420 64 ft 4 kts 259°
2026-04-30 07:21 14.50818 121.01437 59 ft 3 kts 240°
2026-04-30 07:21 14.50804 121.01413 66 ft 4 kts 240°
2026-04-30 07:21 14.50791 121.01389 62 ft 4 kts 240°
2026-04-30 07:22 14.50764 121.01340 61 ft 4 kts 240°
2026-04-30 07:22 14.50761 121.01336 62 ft 0 kts 240°
2026-04-30 07:24 14.50761 121.01335 68 ft 0 kts 240°
2026-04-30 07:24 14.50752 121.01318 60 ft 6 kts 240°
2026-04-30 07:25 14.50722 121.01264 63 ft 11 kts 240°
2026-04-30 07:25 14.50674 121.01177 66 ft 16 kts 240°
2026-04-30 07:25 14.50618 121.01079 66 ft 16 kts 240°
2026-04-30 07:25 14.50562 121.00979 63 ft 16 kts 240°
2026-04-30 07:26 14.50507 121.00879 63 ft 16 kts 241°
2026-04-30 07:26 14.50450 121.00777 65 ft 17 kts 240°
2026-04-30 07:26 14.50392 121.00673 64 ft 17 kts 240°
2026-04-30 07:26 14.50334 121.00570 62 ft 17 kts 240°
2026-04-30 07:27 14.50276 121.00465 59 ft 17 kts 240°
2026-04-30 07:27 14.50221 121.00366 63 ft 15 kts 240°
2026-04-30 07:27 14.50137 121.00338 63 ft 13 kts 191°
2026-04-30 07:27 14.50083 121.00268 63 ft 13 kts 240°
2026-04-30 07:28 14.50037 121.00186 59 ft 13 kts 239°
2026-04-30 07:28 14.49992 121.00104 59 ft 13 kts 240°
2026-04-30 07:28 14.49946 121.00022 65 ft 13 kts 240°
2026-04-30 07:28 14.49883 120.99967 69 ft 12 kts 179°
2026-04-30 07:29 14.49810 121.00007 64 ft 12 kts 127°
2026-04-30 07:29 14.49827 121.00078 67 ft 9 kts 45°
2026-04-30 07:29 14.49855 121.00129 67 ft 10 kts 62°
2026-04-30 07:29 14.49960 121.00319 57 ft 61 kts 60°
2026-04-30 07:30 14.50758 121.01758 74 ft 162 kts 59°
2026-04-30 07:30 14.51348 121.02802 438 ft 169 kts 60°
2026-04-30 07:30 14.51925 121.03891 961 ft 176 kts 62°
2026-04-30 07:31 14.52494 121.05025 1501 ft 178 kts 61°
2026-04-30 07:31 14.53050 121.06145 2077 ft 173 kts 65°
2026-04-30 07:31 14.53677 121.07269 2283 ft 189 kts 63°
2026-04-30 07:31 14.54352 121.08429 2661 ft 190 kts 60°
2026-04-30 07:32 14.55064 121.09660 2786 ft 207 kts 60°
2026-04-30 07:32 14.55820 121.10982 2908 ft 223 kts 63°
2026-04-30 07:32 14.56520 121.12455 2984 ft 241 kts 80°
2026-04-30 07:32 14.56351 121.14190 3151 ft 253 kts 117°
2026-04-30 07:33 14.55295 121.15676 3521 ft 261 kts 131°
2026-04-30 07:33 14.54022 121.17033 4052 ft 264 kts 135°
2026-04-30 07:33 14.52686 121.18351 4612 ft 268 kts 134°
2026-04-30 07:33 14.51329 121.19675 5183 ft 270 kts 134°
2026-04-30 07:34 14.49961 121.21027 5724 ft 274 kts 134°
2026-04-30 07:34 14.48589 121.22405 6264 ft 277 kts 133°
2026-04-30 07:34 14.47038 121.23595 6757 ft 283 kts 155°
2026-04-30 07:34 14.45088 121.23939 7252 ft 291 kts 185°
2026-04-30 07:35 14.43183 121.23248 7759 ft 296 kts 214°
2026-04-30 07:35 14.41692 121.21767 8270 ft 300 kts 227°
2026-04-30 07:35 14.40289 121.20159 8827 ft 302 kts 227°
2026-04-30 07:35 14.38884 121.18530 9351 ft 306 kts 225°
2026-04-30 07:36 14.37459 121.16878 9787 ft 310 kts 227°
2026-04-30 07:36 14.36018 121.15211 10197 ft 316 kts 224°
2026-04-30 07:36 14.34511 121.13480 10313 ft 332 kts 226°
2026-04-30 07:36 14.32924 121.11668 10428 ft 348 kts 226°
2026-04-30 07:37 14.31260 121.09775 10546 ft 363 kts 226°
2026-04-30 07:37 14.29532 121.07808 10680 ft 376 kts 225°
2026-04-30 07:37 14.27659 121.05911 11017 ft 379 kts 217°
2026-04-30 07:37 14.25515 121.04334 11440 ft 380 kts 213°
2026-04-30 07:38 14.23349 121.02805 11917 ft 381 kts 213°
2026-04-30 07:38 14.21157 121.01260 12348 ft 384 kts 211°
2026-04-30 07:38 14.18941 120.99698 12767 ft 387 kts 212°
2026-04-30 07:38 14.16703 120.98120 13132 ft 392 kts 212°
2026-04-30 07:39 14.14449 120.96531 13593 ft 393 kts 213°
2026-04-30 07:39 14.12184 120.94936 13985 ft 395 kts 213°
2026-04-30 07:39 14.09916 120.93339 14428 ft 395 kts 213°
2026-04-30 07:39 14.07642 120.91739 14832 ft 397 kts 213°
2026-04-30 07:40 14.05359 120.90131 15237 ft 398 kts 213°
2026-04-30 07:40 14.03065 120.88517 15635 ft 400 kts 213°
2026-04-30 07:40 14.00762 120.86897 16034 ft 402 kts 213°
2026-04-30 07:40 13.98447 120.85269 16449 ft 404 kts 213°
2026-04-30 07:41 13.96126 120.83634 16836 ft 406 kts 213°
2026-04-30 07:41 13.93790 120.81989 17232 ft 408 kts 213°
2026-04-30 07:41 13.91442 120.80336 17625 ft 410 kts 213°
2026-04-30 07:41 13.89085 120.78678 18014 ft 412 kts 213°
2026-04-30 07:42 13.86715 120.77011 18369 ft 414 kts 213°
2026-04-30 07:42 13.84336 120.75335 18700 ft 416 kts 213°
2026-04-30 07:42 13.81941 120.73652 19020 ft 418 kts 212°
2026-04-30 07:42 13.79527 120.71959 19332 ft 420 kts 211°
2026-04-30 07:43 13.77105 120.70258 19660 ft 422 kts 212°
2026-04-30 07:43 13.74678 120.68547 19982 ft 424 kts 213°
2026-04-30 07:43 13.72240 120.66829 20292 ft 426 kts 212°
2026-04-30 07:43 13.69791 120.65107 20599 ft 428 kts 212°
2026-04-30 07:44 13.67326 120.63376 20888 ft 429 kts 213°
2026-04-30 07:44 13.64858 120.61645 21185 ft 431 kts 213°
2026-04-30 07:44 13.62412 120.59928 21483 ft 432 kts 213°
2026-04-30 07:44 13.59892 120.58233 21757 ft 433 kts 208°
2026-04-30 07:45 13.57189 120.56865 22028 ft 434 kts 204°
2026-04-30 07:45 13.54444 120.55549 22307 ft 436 kts 204°
2026-04-30 07:45 13.51682 120.54226 22557 ft 438 kts 204°
2026-04-30 07:45 13.48915 120.52899 22825 ft 440 kts 205°
2026-04-30 07:46 13.46146 120.51569 23237 ft 438 kts 205°
2026-04-30 07:46 13.43405 120.50249 23694 ft 433 kts 205°
2026-04-30 07:46 13.40692 120.48940 24126 ft 429 kts 205°
2026-04-30 07:46 13.38006 120.47644 24569 ft 424 kts 205°
2026-04-30 07:47 13.35352 120.46366 25008 ft 419 kts 205°
2026-04-30 07:47 13.32726 120.45103 25465 ft 414 kts 205°
2026-04-30 07:47 13.30133 120.43858 25925 ft 409 kts 205°
2026-04-30 07:47 13.27571 120.42629 26392 ft 404 kts 205°
2026-04-30 07:48 13.25041 120.41415 26867 ft 398 kts 205°
2026-04-30 07:48 13.22547 120.40218 27350 ft 393 kts 205°
2026-04-30 07:48 13.20086 120.39036 27839 ft 387 kts 205°
2026-04-30 07:48 13.17670 120.37874 28339 ft 380 kts 205°
2026-04-30 07:49 13.15292 120.36731 28848 ft 373 kts 205°
2026-04-30 07:49 13.12952 120.35608 29186 ft 372 kts 205°
2026-04-30 07:49 13.10599 120.34475 29317 ft 375 kts 205°
2026-04-30 07:49 13.08227 120.33335 29451 ft 378 kts 205°
2026-04-30 07:50 13.05834 120.32188 29586 ft 381 kts 205°
2026-04-30 07:50 13.03421 120.31033 29731 ft 384 kts 205°
2026-04-30 07:50 13.00992 120.29868 29856 ft 388 kts 205°
2026-04-30 07:51 12.96026 120.27490 29873 ft 400 kts 205°
2026-04-30 07:51 12.90898 120.25039 29874 ft 413 kts 205°
2026-04-30 07:52 12.85616 120.22510 29874 ft 425 kts 205°
2026-04-30 07:52 12.80186 120.19911 29874 ft 436 kts 205°
2026-04-30 07:53 12.74612 120.17244 29874 ft 448 kts 205°
2026-04-30 07:53 12.68943 120.14534 29878 ft 458 kts 205°
2026-04-30 07:54 12.63097 120.11738 29878 ft 469 kts 204°
2026-04-30 07:54 12.57149 120.08899 30060 ft 473 kts 204°
2026-04-30 07:54 12.54157 120.07474 30167 ft 474 kts 204°
2026-04-30 07:55 12.51162 120.06048 30280 ft 475 kts 204°
2026-04-30 07:55 12.48165 120.04619 30397 ft 476 kts 204°
2026-04-30 07:55 12.45163 120.03186 30511 ft 476 kts 204°
2026-04-30 07:55 12.42160 120.01750 30625 ft 477 kts 204°
2026-04-30 07:56 12.39154 120.00314 30740 ft 477 kts 204°
2026-04-30 07:56 12.36148 119.98878 30854 ft 477 kts 204°
2026-04-30 07:56 12.33140 119.97445 30970 ft 477 kts 204°
2026-04-30 07:56 12.30127 119.96013 31088 ft 477 kts 204°
2026-04-30 07:57 12.27121 119.94582 31215 ft 477 kts 204°
2026-04-30 07:57 12.24113 119.93148 31363 ft 476 kts 204°
2026-04-30 07:57 12.21115 119.91718 31511 ft 476 kts 204°
2026-04-30 07:57 12.18114 119.90292 31654 ft 475 kts 204°
2026-04-30 07:58 12.15121 119.88875 31799 ft 474 kts 204°
2026-04-30 07:58 12.12125 119.87456 31941 ft 474 kts 204°
2026-04-30 07:58 12.09143 119.86036 32081 ft 473 kts 204°
2026-04-30 07:58 12.06161 119.84617 32219 ft 473 kts 204°
2026-04-30 07:59 12.03180 119.83199 32340 ft 473 kts 204°
2026-04-30 07:59 12.00199 119.81782 32470 ft 472 kts 204°
2026-04-30 07:59 11.97220 119.80368 32607 ft 472 kts 204°
2026-04-30 08:00 11.91277 119.77544 32880 ft 471 kts 204°
2026-04-30 08:00 11.88348 119.76152 33012 ft 470 kts 204°
2026-04-30 08:00 11.85385 119.74744 33153 ft 469 kts 204°
2026-04-30 08:00 11.82424 119.73339 33290 ft 469 kts 204°
2026-04-30 08:01 11.79469 119.71939 33422 ft 468 kts 204°
2026-04-30 08:01 11.76514 119.70542 33559 ft 468 kts 204°
2026-04-30 08:01 11.73565 119.69142 33685 ft 467 kts 204°
2026-04-30 08:01 11.70621 119.67740 33838 ft 467 kts 204°
2026-04-30 08:02 11.61748 119.63584 33879 ft 468 kts 203°
2026-04-30 08:03 11.49878 119.58114 33876 ft 468 kts 203°
2026-04-30 08:04 11.43943 119.55359 33877 ft 469 kts 203°
2026-04-30 08:04 11.38999 119.53060 33889 ft 471 kts 203°
2026-04-30 08:05 11.33031 119.50291 33895 ft 471 kts 203°
2026-04-30 08:05 11.27058 119.47536 33896 ft 471 kts 203°
2026-04-30 08:06 11.21085 119.44780 33893 ft 471 kts 203°
2026-04-30 08:06 11.15117 119.42014 33894 ft 471 kts 203°
2026-04-30 08:07 11.09151 119.39246 33890 ft 471 kts 203°
2026-04-30 08:07 11.03186 119.36485 33889 ft 471 kts 203°
2026-04-30 08:08 10.97213 119.33722 33892 ft 471 kts 203°
2026-04-30 08:08 10.91236 119.30966 33892 ft 472 kts 203°
2026-04-30 08:09 10.85258 119.28211 33894 ft 472 kts 203°
2026-04-30 08:09 10.79315 119.25468 33889 ft 472 kts 203°
2026-04-30 08:10 10.73331 119.22707 33892 ft 473 kts 203°
2026-04-30 08:10 10.67343 119.19939 33891 ft 473 kts 203°
2026-04-30 08:11 10.61344 119.17166 33893 ft 474 kts 203°
2026-04-30 08:11 10.55338 119.14402 33898 ft 474 kts 203°
2026-04-30 08:12 10.49328 119.11646 33902 ft 473 kts 202°
2026-04-30 08:12 10.43329 119.08884 33900 ft 473 kts 203°
2026-04-30 08:13 10.37332 119.06118 33900 ft 473 kts 202°
2026-04-30 08:13 10.31380 119.03379 33899 ft 473 kts 203°
2026-04-30 08:14 10.25388 119.00634 33902 ft 473 kts 202°
2026-04-30 08:14 10.19392 118.97884 33899 ft 472 kts 202°
2026-04-30 08:15 10.13399 118.95129 33902 ft 473 kts 203°
2026-04-30 08:15 10.07405 118.92376 33904 ft 473 kts 203°
2026-04-30 08:16 10.01411 118.89622 33899 ft 473 kts 203°
2026-04-30 08:16 9.95418 118.86872 33899 ft 473 kts 203°
2026-04-30 08:17 9.89425 118.84121 33897 ft 473 kts 203°
2026-04-30 08:17 9.83414 118.81371 33910 ft 474 kts 203°
2026-04-30 08:18 9.77394 118.78618 33909 ft 475 kts 203°
2026-04-30 08:18 9.71640 118.75340 33911 ft 477 kts 214°
2026-04-30 08:19 9.66260 118.71399 33913 ft 477 kts 214°
2026-04-30 08:19 9.60859 118.67482 33911 ft 478 kts 214°
2026-04-30 08:20 9.55452 118.63562 33914 ft 478 kts 214°
2026-04-30 08:20 9.50048 118.59632 33910 ft 478 kts 214°
2026-04-30 08:21 9.44650 118.55702 33907 ft 478 kts 214°
2026-04-30 08:21 9.39281 118.51800 33901 ft 478 kts 214°
2026-04-30 08:22 9.33883 118.47881 33899 ft 478 kts 214°
2026-04-30 08:22 9.28486 118.43964 33894 ft 477 kts 213°
2026-04-30 08:23 9.23082 118.40049 33891 ft 478 kts 213°
2026-04-30 08:23 9.17681 118.36132 33885 ft 478 kts 214°
2026-04-30 08:24 9.12271 118.32209 33888 ft 478 kts 214°
2026-04-30 08:24 9.06860 118.28281 33883 ft 479 kts 214°
2026-04-30 08:25 9.01443 118.24365 33883 ft 479 kts 214°
2026-04-30 08:25 8.96013 118.20457 33882 ft 479 kts 214°
2026-04-30 08:26 8.90570 118.16548 33884 ft 480 kts 213°
2026-04-30 08:26 8.85126 118.12633 33885 ft 480 kts 214°
2026-04-30 08:27 8.79683 118.08710 33885 ft 480 kts 214°
2026-04-30 08:27 8.74240 118.04787 33886 ft 480 kts 214°
2026-04-30 08:28 8.68798 118.00874 33889 ft 480 kts 213°
2026-04-30 08:28 8.63351 117.96959 33886 ft 480 kts 214°
2026-04-30 08:29 8.57899 117.93040 33889 ft 481 kts 213°
2026-04-30 08:29 8.52445 117.89129 33883 ft 481 kts 214°
2026-04-30 08:30 8.46993 117.85214 33882 ft 481 kts 214°
2026-04-30 08:30 8.41569 117.81320 33883 ft 481 kts 214°
2026-04-30 08:31 8.36110 117.77409 33884 ft 481 kts 214°
2026-04-30 08:31 8.30649 117.73483 33878 ft 482 kts 214°
2026-04-30 08:32 8.25175 117.69552 33881 ft 483 kts 214°
2026-04-30 08:32 8.19702 117.65621 33879 ft 483 kts 214°
2026-04-30 08:33 8.14217 117.61697 33880 ft 483 kts 213°
2026-04-30 08:33 8.08735 117.57772 33882 ft 483 kts 214°
2026-04-30 08:34 8.03253 117.53840 33879 ft 484 kts 214°
2026-04-30 08:34 7.97760 117.49907 33877 ft 485 kts 214°
2026-04-30 08:35 7.92253 117.45969 33879 ft 485 kts 214°
2026-04-30 08:35 7.86751 117.42031 33882 ft 485 kts 214°
2026-04-30 08:36 7.81248 117.38097 33883 ft 485 kts 214°
2026-04-30 08:36 7.75745 117.34162 33883 ft 485 kts 214°
2026-04-30 08:37 7.70240 117.30228 33880 ft 485 kts 214°
2026-04-30 08:37 7.64759 117.26325 33878 ft 486 kts 214°
2026-04-30 08:38 7.59222 117.22419 33879 ft 486 kts 213°
2026-04-30 08:38 7.53680 117.18515 33879 ft 486 kts 213°
2026-04-30 08:39 7.48140 117.14606 33880 ft 486 kts 214°
2026-04-30 08:39 7.42610 117.10698 33877 ft 486 kts 213°
2026-04-30 08:40 7.37075 117.06780 33875 ft 486 kts 214°
2026-04-30 08:40 7.31535 117.02867 33875 ft 486 kts 213°
2026-04-30 08:41 7.25988 116.98960 33876 ft 487 kts 213°
2026-04-30 08:41 7.20442 116.95050 33875 ft 487 kts 214°
2026-04-30 08:42 7.14893 116.91128 33875 ft 487 kts 214°
2026-04-30 08:42 7.09346 116.87213 33876 ft 487 kts 213°
2026-04-30 08:43 7.03792 116.83310 33871 ft 487 kts 213°
2026-04-30 08:43 6.98244 116.79412 33862 ft 486 kts 213°
2026-04-30 08:44 6.92698 116.75501 33863 ft 486 kts 213°
2026-04-30 08:44 6.87157 116.71597 33864 ft 486 kts 213°
2026-04-30 08:45 6.81611 116.67695 33867 ft 486 kts 213°
2026-04-30 08:45 6.76071 116.63789 33862 ft 487 kts 213°
2026-04-30 08:46 6.70551 116.59903 33857 ft 488 kts 213°
2026-04-30 08:46 6.64984 116.55991 33862 ft 488 kts 213°
2026-04-30 08:47 6.59417 116.52076 33872 ft 488 kts 213°
2026-04-30 08:47 6.53853 116.48163 33871 ft 488 kts 213°
2026-04-30 08:48 6.48281 116.44254 33874 ft 488 kts 213°
2026-04-30 08:48 6.42705 116.40360 33870 ft 488 kts 213°
2026-04-30 08:49 6.37117 116.36452 33867 ft 489 kts 213°
2026-04-30 08:49 6.31536 116.32539 33869 ft 489 kts 213°
2026-04-30 08:50 6.25950 116.28622 33870 ft 489 kts 213°
2026-04-30 08:50 6.20368 116.24706 33868 ft 490 kts 214°
2026-04-30 08:51 6.14779 116.20789 33864 ft 489 kts 213°
2026-04-30 08:51 6.09188 116.16876 33846 ft 490 kts 213°
2026-04-30 08:52 6.03595 116.12967 33839 ft 490 kts 213°
2026-04-30 08:52 5.97998 116.09049 33833 ft 490 kts 213°
2026-04-30 08:53 5.93339 116.05806 33835 ft 490 kts 211°
2026-04-30 08:53 5.87148 116.03110 33832 ft 485 kts 191°
2026-04-30 08:54 5.79420 116.01925 33831 ft 484 kts 186°
2026-04-30 08:54 5.73822 116.01142 33830 ft 485 kts 186°
2026-04-30 08:55 5.67139 116.00202 33830 ft 485 kts 186°
2026-04-30 08:55 5.60451 115.99266 33841 ft 486 kts 186°
2026-04-30 08:56 5.53796 115.98331 33840 ft 486 kts 186°
2026-04-30 08:56 5.47092 115.97391 33850 ft 486 kts 186°
2026-04-30 08:57 5.40386 115.96456 33852 ft 487 kts 186°
2026-04-30 08:57 5.33677 115.95512 33855 ft 487 kts 186°
2026-04-30 08:58 5.26960 115.94576 33859 ft 487 kts 186°
2026-04-30 08:58 5.20247 115.93646 33867 ft 487 kts 186°
2026-04-30 08:59 5.13530 115.92776 33863 ft 486 kts 185°
2026-04-30 08:59 5.06814 115.91933 33868 ft 487 kts 185°
2026-04-30 09:00 5.00090 115.91073 33866 ft 487 kts 185°
2026-04-30 09:00 4.93415 115.90214 33885 ft 487 kts 186°
2026-04-30 09:01 4.86690 115.89343 33886 ft 487 kts 185°
2026-04-30 09:01 4.79966 115.88433 33913 ft 487 kts 186°
2026-04-30 09:02 4.69883 115.87033 33911 ft 487 kts 186°
2026-04-30 09:02 4.63166 115.86118 33926 ft 487 kts 186°
2026-04-30 09:03 4.56449 115.85202 33926 ft 487 kts 186°
2026-04-30 09:03 4.49724 115.84283 33937 ft 488 kts 185°
2026-04-30 09:04 4.43002 115.83366 33938 ft 487 kts 186°
2026-04-30 09:04 4.36282 115.82451 33939 ft 487 kts 186°
2026-04-30 09:05 4.29556 115.81533 33941 ft 488 kts 186°
2026-04-30 09:05 4.22831 115.80619 33932 ft 488 kts 186°
2026-04-30 09:06 4.16153 115.79703 33935 ft 488 kts 186°
2026-04-30 09:06 4.09427 115.78792 33927 ft 488 kts 186°
2026-04-30 09:07 4.02721 115.77717 33927 ft 489 kts 189°
2026-04-30 09:07 3.96047 115.76371 33928 ft 489 kts 190°
2026-04-30 09:08 3.89380 115.75008 33929 ft 489 kts 189°
2026-04-30 09:08 3.82691 115.73717 33927 ft 489 kts 188°
2026-04-30 09:09 3.75998 115.72457 33927 ft 489 kts 189°
2026-04-30 09:09 3.69300 115.71197 33927 ft 489 kts 188°
2026-04-30 09:10 3.62615 115.69926 33920 ft 489 kts 189°
2026-04-30 09:10 3.55928 115.68642 33924 ft 489 kts 189°
2026-04-30 09:11 3.49241 115.67364 33923 ft 489 kts 189°
2026-04-30 09:11 3.42551 115.66094 33921 ft 489 kts 189°
2026-04-30 09:12 3.35904 115.64830 33921 ft 489 kts 189°
2026-04-30 09:12 3.29223 115.63554 33915 ft 489 kts 189°
2026-04-30 09:13 3.22540 115.62278 33917 ft 488 kts 189°
2026-04-30 09:13 3.15862 115.61014 33918 ft 488 kts 189°
2026-04-30 09:14 3.09184 115.59740 33910 ft 488 kts 189°
2026-04-30 09:14 3.02514 115.58473 33905 ft 488 kts 189°
2026-04-30 09:15 2.95842 115.57198 33910 ft 488 kts 189°
2026-04-30 09:15 2.89164 115.55924 33904 ft 488 kts 189°
2026-04-30 09:16 2.82486 115.54652 33903 ft 488 kts 189°
2026-04-30 09:16 2.75814 115.53392 33903 ft 488 kts 189°
2026-04-30 09:17 2.69144 115.52130 33890 ft 488 kts 189°
2026-04-30 09:17 2.62467 115.50863 33896 ft 489 kts 189°
2026-04-30 09:18 2.55833 115.49595 33894 ft 489 kts 189°
2026-04-30 09:18 2.49144 115.48319 33896 ft 489 kts 189°
2026-04-30 09:19 2.42412 115.47042 33891 ft 489 kts 189°
2026-04-30 09:19 2.35719 115.45767 33893 ft 489 kts 189°
2026-04-30 09:20 2.29031 115.44494 33888 ft 489 kts 189°
2026-04-30 09:20 2.22340 115.43220 33889 ft 489 kts 188°
2026-04-30 09:21 2.15698 115.41962 33883 ft 489 kts 189°
2026-04-30 09:21 2.09015 115.40696 33883 ft 489 kts 189°
2026-04-30 09:22 2.02328 115.39421 33888 ft 489 kts 189°
2026-04-30 09:22 1.95643 115.38144 33887 ft 489 kts 189°
2026-04-30 09:23 1.88955 115.36879 33883 ft 489 kts 189°
2026-04-30 09:23 1.82274 115.35616 33883 ft 488 kts 189°
2026-04-30 09:24 1.75596 115.34347 33884 ft 488 kts 189°
2026-04-30 09:24 1.68922 115.33079 33886 ft 488 kts 189°
2026-04-30 09:25 1.62248 115.31809 33885 ft 488 kts 189°
2026-04-30 09:25 1.55572 115.30536 33883 ft 488 kts 189°
2026-04-30 09:26 1.48899 115.29269 33884 ft 488 kts 189°
2026-04-30 09:26 1.42223 115.28007 33883 ft 488 kts 189°
2026-04-30 09:27 1.35552 115.26736 33874 ft 488 kts 189°
2026-04-30 09:27 1.28915 115.25471 33874 ft 489 kts 189°
2026-04-30 09:28 1.22227 115.24201 33880 ft 489 kts 189°
2026-04-30 09:28 1.15538 115.22936 33882 ft 490 kts 189°
2026-04-30 09:29 1.08842 115.21668 33885 ft 490 kts 189°
2026-04-30 09:29 1.02152 115.20396 33886 ft 489 kts 189°
2026-04-30 09:30 0.95459 115.19132 33889 ft 490 kts 189°
2026-04-30 09:30 0.88762 115.17858 33892 ft 490 kts 189°
2026-04-30 09:31 0.82069 115.16581 33883 ft 489 kts 189°
2026-04-30 09:31 0.75378 115.15313 33880 ft 489 kts 189°
2026-04-30 09:32 0.68691 115.14045 33875 ft 489 kts 189°
2026-04-30 09:32 0.62002 115.12782 33876 ft 489 kts 189°
2026-04-30 09:33 0.55358 115.11511 33877 ft 489 kts 189°
2026-04-30 09:33 0.48673 115.10241 33869 ft 489 kts 189°
2026-04-30 09:34 0.41981 115.08980 33873 ft 489 kts 189°
2026-04-30 09:34 0.35287 115.07708 33867 ft 489 kts 189°
2026-04-30 09:35 0.28597 115.06428 33868 ft 490 kts 189°
2026-04-30 09:35 0.21905 115.05159 33868 ft 489 kts 189°
2026-04-30 09:36 0.15214 115.03892 33866 ft 489 kts 189°
2026-04-30 09:36 0.08524 115.02625 33867 ft 489 kts 189°
2026-04-30 09:37 0.01830 115.01356 33874 ft 489 kts 189°
2026-04-30 09:37 -0.04852 115.00086 33864 ft 489 kts 189°
2026-04-30 09:38 -0.11538 114.98823 33863 ft 489 kts 189°
2026-04-30 09:38 -0.18216 114.97553 33862 ft 489 kts 189°
2026-04-30 09:39 -0.24896 114.96278 33864 ft 489 kts 189°
2026-04-30 09:39 -0.31579 114.95013 33858 ft 489 kts 189°
2026-04-30 09:40 -0.38265 114.93743 33855 ft 489 kts 189°
2026-04-30 09:40 -0.44903 114.92483 33853 ft 489 kts 189°
2026-04-30 09:41 -0.51592 114.91219 33855 ft 489 kts 189°
2026-04-30 09:41 -0.58292 114.89953 33853 ft 489 kts 189°
2026-04-30 09:42 -0.63850 114.88892 33856 ft 489 kts 189°
2026-04-30 09:42 -0.70546 114.87615 33857 ft 490 kts 189°
2026-04-30 09:43 -0.77248 114.86344 33854 ft 490 kts 189°
2026-04-30 09:43 -0.83955 114.85077 33851 ft 491 kts 189°
2026-04-30 09:44 -0.90671 114.83807 33849 ft 491 kts 188°
2026-04-30 09:44 -0.97461 114.83565 33852 ft 489 kts 177°
2026-04-30 09:45 -1.04262 114.83789 33854 ft 489 kts 177°
2026-04-30 09:45 -1.11031 114.83997 33857 ft 490 kts 177°
2026-04-30 09:46 -1.17842 114.84204 33857 ft 490 kts 177°
2026-04-30 09:46 -1.24669 114.84415 33858 ft 491 kts 177°
2026-04-30 09:47 -1.31499 114.84627 33864 ft 491 kts 177°
2026-04-30 09:47 -1.38324 114.84850 33865 ft 491 kts 177°
2026-04-30 09:48 -1.45151 114.85072 33865 ft 491 kts 177°
2026-04-30 09:48 -1.51979 114.85290 33865 ft 491 kts 177°
2026-04-30 09:49 -1.58808 114.85498 33866 ft 491 kts 177°
2026-04-30 09:49 -1.65642 114.85701 33866 ft 491 kts 177°
2026-04-30 09:50 -1.72476 114.85916 33868 ft 491 kts 177°
2026-04-30 09:50 -1.79309 114.86139 33866 ft 491 kts 176°
2026-04-30 09:51 -1.86146 114.86358 33866 ft 492 kts 177°
2026-04-30 09:51 -1.92943 114.86570 33866 ft 492 kts 177°
2026-04-30 09:52 -1.99783 114.86784 33864 ft 492 kts 177°
2026-04-30 09:52 -2.06623 114.86996 33863 ft 492 kts 176°
2026-04-30 09:53 -2.13470 114.87216 33862 ft 492 kts 176°
2026-04-30 09:53 -2.20316 114.87433 33862 ft 492 kts 176°
2026-04-30 09:54 -2.27164 114.87646 33862 ft 492 kts 176°
2026-04-30 09:54 -2.34020 114.87868 33862 ft 493 kts 176°
2026-04-30 09:55 -2.40880 114.88082 33861 ft 493 kts 176°
2026-04-30 09:55 -2.47741 114.88288 33861 ft 493 kts 176°
2026-04-30 09:56 -2.54603 114.88506 33861 ft 494 kts 176°
2026-04-30 09:56 -2.61424 114.88720 33862 ft 494 kts 176°
2026-04-30 09:57 -2.68300 114.88935 33868 ft 494 kts 176°
2026-04-30 09:57 -2.75171 114.89160 33867 ft 494 kts 176°
2026-04-30 09:58 -2.82047 114.89379 33869 ft 494 kts 176°
2026-04-30 09:58 -2.88921 114.89592 33869 ft 494 kts 176°
2026-04-30 09:59 -3.02666 114.90027 33868 ft 494 kts 176°
2026-04-30 10:00 -3.12974 114.90353 33867 ft 494 kts 176°
2026-04-30 10:01 -3.23284 114.90677 33879 ft 494 kts 176°
2026-04-30 10:02 -3.33590 114.90989 33883 ft 494 kts 176°
2026-04-30 10:02 -3.40457 114.91210 33884 ft 494 kts 176°
2026-04-30 10:03 -3.47328 114.91424 33890 ft 494 kts 177°
2026-04-30 10:03 -3.54204 114.91641 33877 ft 494 kts 177°
2026-04-30 10:04 -3.61031 114.91857 33884 ft 494 kts 177°
2026-04-30 10:04 -3.67946 114.92078 33883 ft 494 kts 176°
2026-04-30 10:05 -3.74768 114.92295 33893 ft 494 kts 177°
2026-04-30 10:05 -3.81639 114.92512 33891 ft 493 kts 177°
2026-04-30 10:06 -3.88496 114.92730 33898 ft 493 kts 177°
2026-04-30 10:06 -3.95350 114.92944 33896 ft 492 kts 177°
2026-04-30 10:07 -4.02194 114.93163 33898 ft 492 kts 177°
2026-04-30 10:07 -4.09042 114.93382 33898 ft 492 kts 177°
2026-04-30 10:08 -4.15890 114.93595 33896 ft 492 kts 177°
2026-04-30 10:08 -4.22733 114.93810 33905 ft 491 kts 177°
2026-04-30 10:09 -4.29565 114.94024 33905 ft 491 kts 177°
2026-04-30 10:09 -4.36388 114.94252 33905 ft 491 kts 176°
2026-04-30 10:10 -4.43209 114.94615 33907 ft 490 kts 175°
2026-04-30 10:10 -4.50018 114.95045 33913 ft 490 kts 175°
2026-04-30 10:11 -4.56839 114.95455 33905 ft 491 kts 175°
2026-04-30 10:11 -4.63671 114.95833 33904 ft 492 kts 176°
2026-04-30 10:12 -4.70511 114.96205 33902 ft 492 kts 176°
2026-04-30 10:12 -4.77312 114.96589 33903 ft 493 kts 175°
2026-04-30 10:13 -4.84158 114.96983 33904 ft 493 kts 175°
2026-04-30 10:13 -4.91007 114.97369 33901 ft 493 kts 175°
2026-04-30 10:14 -4.97870 114.97746 33904 ft 494 kts 175°
2026-04-30 10:14 -5.08161 114.98324 33905 ft 494 kts 175°
2026-04-30 10:15 -5.15022 114.98715 33904 ft 494 kts 175°
2026-04-30 10:15 -5.21880 114.99102 33907 ft 493 kts 176°
2026-04-30 10:16 -5.28717 114.98973 33911 ft 493 kts 186°
2026-04-30 10:17 -5.38921 114.97677 33908 ft 493 kts 186°
2026-04-30 10:17 -5.49118 114.96350 33907 ft 492 kts 186°
2026-04-30 10:18 -5.55871 114.95489 33909 ft 493 kts 186°
2026-04-30 10:19 -5.66073 114.94188 33913 ft 493 kts 186°
2026-04-30 10:19 -5.72886 114.93319 33911 ft 493 kts 186°
2026-04-30 10:20 -5.79695 114.92454 33908 ft 493 kts 186°
2026-04-30 10:20 -5.89902 114.91145 33910 ft 491 kts 186°
2026-04-30 10:21 -5.96561 114.90291 33885 ft 478 kts 186°
2026-04-30 10:21 -6.03140 114.89451 33884 ft 476 kts 186°
2026-04-30 10:22 -6.09717 114.88609 33890 ft 476 kts 186°
2026-04-30 10:22 -6.16293 114.87766 33890 ft 476 kts 186°
2026-04-30 10:23 -6.22865 114.86922 33888 ft 476 kts 186°
2026-04-30 10:23 -6.29434 114.86073 33897 ft 476 kts 186°
2026-04-30 10:24 -6.36008 114.85230 33902 ft 476 kts 186°
2026-04-30 10:24 -6.42578 114.84391 33904 ft 476 kts 186°
2026-04-30 10:25 -6.49149 114.83545 33909 ft 476 kts 186°
2026-04-30 10:25 -6.55716 114.82708 33909 ft 476 kts 186°
2026-04-30 10:26 -6.62289 114.81864 33913 ft 476 kts 186°
2026-04-30 10:26 -6.68868 114.81020 33917 ft 476 kts 186°
2026-04-30 10:27 -6.75445 114.80178 33631 ft 477 kts 186°
2026-04-30 10:27 -6.78675 114.79763 33276 ft 469 kts 186°
2026-04-30 10:27 -6.81886 114.79351 33037 ft 464 kts 186°
2026-04-30 10:28 -6.85083 114.78942 32779 ft 462 kts 186°
2026-04-30 10:28 -6.88271 114.78533 32531 ft 462 kts 186°
2026-04-30 10:28 -6.91464 114.78122 32295 ft 462 kts 186°
2026-04-30 10:28 -6.94643 114.77711 32054 ft 460 kts 186°
2026-04-30 10:29 -6.97814 114.77298 31813 ft 458 kts 186°
2026-04-30 10:29 -7.00969 114.76889 31576 ft 457 kts 186°
2026-04-30 10:29 -7.04117 114.76480 31341 ft 455 kts 186°
2026-04-30 10:29 -7.07262 114.76074 31109 ft 454 kts 186°
2026-04-30 10:30 -7.09336 114.75809 30955 ft 453 kts 186°
2026-04-30 10:30 -7.12453 114.75411 30723 ft 451 kts 186°
2026-04-30 10:30 -7.15560 114.75016 30490 ft 450 kts 186°
2026-04-30 10:30 -7.18664 114.74621 30260 ft 448 kts 186°
2026-04-30 10:31 -7.21752 114.74227 30043 ft 447 kts 186°
2026-04-30 10:31 -7.24818 114.73834 29605 ft 442 kts 186°
2026-04-30 10:31 -7.27857 114.73441 29079 ft 438 kts 186°
2026-04-30 10:31 -7.30868 114.73050 28562 ft 435 kts 186°
2026-04-30 10:32 -7.33857 114.72661 28046 ft 432 kts 186°
2026-04-30 10:32 -7.36828 114.72274 27552 ft 429 kts 186°
2026-04-30 10:32 -7.39775 114.71892 27041 ft 426 kts 186°
2026-04-30 10:32 -7.42706 114.71516 26548 ft 423 kts 185°
2026-04-30 10:33 -7.45622 114.71144 26058 ft 421 kts 185°
2026-04-30 10:33 -7.48520 114.70773 25584 ft 419 kts 185°
2026-04-30 10:33 -7.51404 114.70403 25113 ft 417 kts 185°
2026-04-30 10:33 -7.54278 114.70031 24655 ft 416 kts 185°
2026-04-30 10:34 -7.57143 114.69660 24194 ft 415 kts 186°
2026-04-30 10:34 -7.60001 114.69288 23752 ft 414 kts 185°
2026-04-30 10:34 -7.62853 114.68918 23268 ft 413 kts 185°
2026-04-30 10:34 -7.65693 114.68555 22803 ft 410 kts 185°
2026-04-30 10:35 -7.68519 114.68196 22364 ft 407 kts 185°
2026-04-30 10:35 -7.71318 114.67838 21914 ft 404 kts 185°
2026-04-30 10:35 -7.74102 114.67477 21448 ft 402 kts 185°
2026-04-30 10:35 -7.76867 114.67119 21004 ft 399 kts 185°
2026-04-30 10:36 -7.79614 114.66763 20539 ft 397 kts 185°
2026-04-30 10:36 -7.82348 114.66409 20069 ft 395 kts 185°
2026-04-30 10:36 -7.85069 114.66058 19592 ft 393 kts 185°
2026-04-30 10:36 -7.87783 114.65709 19119 ft 392 kts 185°
2026-04-30 10:37 -7.90488 114.65360 18634 ft 390 kts 185°
2026-04-30 10:37 -7.93179 114.65013 18145 ft 389 kts 185°
2026-04-30 10:37 -7.95856 114.64667 17617 ft 387 kts 185°
2026-04-30 10:37 -7.98515 114.64324 17136 ft 383 kts 185°
2026-04-30 10:38 -8.01113 114.63990 16686 ft 380 kts 185°
2026-04-30 10:38 -8.03756 114.63648 16192 ft 377 kts 185°
2026-04-30 10:38 -8.06314 114.63313 15723 ft 374 kts 185°
2026-04-30 10:38 -8.08884 114.62976 15243 ft 371 kts 185°
2026-04-30 10:39 -8.11441 114.62645 14788 ft 369 kts 185°
2026-04-30 10:39 -8.13974 114.62319 14327 ft 366 kts 185°
2026-04-30 10:39 -8.16492 114.61995 13861 ft 363 kts 185°
2026-04-30 10:39 -8.18998 114.61674 13401 ft 360 kts 185°
2026-04-30 10:40 -8.21454 114.61358 13033 ft 353 kts 185°
2026-04-30 10:40 -8.23883 114.61077 12586 ft 349 kts 181°
2026-04-30 10:40 -8.26280 114.61226 12146 ft 343 kts 167°
2026-04-30 10:40 -8.28541 114.61903 11720 ft 337 kts 155°
2026-04-30 10:41 -8.30686 114.62840 11289 ft 334 kts 155°
2026-04-30 10:41 -8.32810 114.63766 10865 ft 332 kts 155°
2026-04-30 10:41 -8.34927 114.64686 10455 ft 330 kts 155°
2026-04-30 10:41 -8.36997 114.65581 10311 ft 318 kts 155°
2026-04-30 10:42 -8.38990 114.66441 10183 ft 305 kts 155°
2026-04-30 10:42 -8.40896 114.67265 9769 ft 291 kts 155°
2026-04-30 10:42 -8.42760 114.68073 9643 ft 293 kts 155°
2026-04-30 10:42 -8.44631 114.68887 9318 ft 292 kts 155°
2026-04-30 10:43 -8.46490 114.69699 8955 ft 290 kts 155°
2026-04-30 10:43 -8.48334 114.70506 8692 ft 288 kts 155°
2026-04-30 10:43 -8.50170 114.71313 8422 ft 287 kts 155°
2026-04-30 10:43 -8.52000 114.72113 8139 ft 286 kts 155°
2026-04-30 10:44 -8.53824 114.72909 7861 ft 285 kts 155°
2026-04-30 10:44 -8.55554 114.73857 7579 ft 282 kts 142°
2026-04-30 10:44 -8.57051 114.75124 7313 ft 281 kts 138°
2026-04-30 10:44 -8.58528 114.76411 7035 ft 280 kts 138°
2026-04-30 10:45 -8.60007 114.77691 6758 ft 280 kts 138°
2026-04-30 10:45 -8.61484 114.78964 6488 ft 278 kts 137°
2026-04-30 10:45 -8.62952 114.80234 6209 ft 277 kts 138°
2026-04-30 10:45 -8.64414 114.81499 5932 ft 277 kts 138°
2026-04-30 10:46 -8.65878 114.82767 5657 ft 276 kts 138°
2026-04-30 10:46 -8.67331 114.84027 5382 ft 275 kts 138°
2026-04-30 10:46 -8.68761 114.85267 5117 ft 275 kts 138°
2026-04-30 10:46 -8.70203 114.86516 4889 ft 270 kts 139°
2026-04-30 10:47 -8.71601 114.87726 4769 ft 258 kts 137°
2026-04-30 10:47 -8.72924 114.88869 4531 ft 246 kts 137°
2026-04-30 10:47 -8.74188 114.89999 4149 ft 239 kts 131°
2026-04-30 10:47 -8.75086 114.91368 3860 ft 230 kts 112°
2026-04-30 10:48 -8.75471 114.92894 3627 ft 221 kts 94°
2026-04-30 10:48 -8.75491 114.94438 3413 ft 219 kts 90°
2026-04-30 10:48 -8.75497 114.95982 3194 ft 218 kts 90°
2026-04-30 10:48 -8.75504 114.97508 2975 ft 217 kts 91°
2026-04-30 10:49 -8.75513 114.99014 2748 ft 210 kts 92°
2026-04-30 10:49 -8.75498 115.00451 2564 ft 198 kts 89°
2026-04-30 10:49 -8.75447 115.01802 2363 ft 188 kts 89°
2026-04-30 10:49 -8.75394 115.03098 2172 ft 183 kts 89°
2026-04-30 10:50 -8.75349 115.04373 1999 ft 181 kts 89°
2026-04-30 10:50 -8.75297 115.05641 1876 ft 180 kts 89°
2026-04-30 10:50 -8.75220 115.06906 1649 ft 181 kts 87°
2026-04-30 10:50 -8.75143 115.08166 1398 ft 178 kts 90°
2026-04-30 10:51 -8.75088 115.09326 1300 ft 155 kts 90°
2026-04-30 10:51 -8.75068 115.10384 1075 ft 146 kts 92°
2026-04-30 10:51 -8.75036 115.11388 804 ft 144 kts 90°
2026-04-30 10:51 -8.74998 115.12402 522 ft 145 kts 90°
2026-04-30 10:52 -8.74972 115.13400 414 ft 141 kts 89°
2026-04-30 10:52 -8.74929 115.14403 227 ft 142 kts 87°
2026-04-30 10:52 -8.74892 115.15397 86 ft 141 kts 88°
2026-04-30 10:52 -8.74860 115.16378 31 ft 131 kts 88°
2026-04-30 10:53 -8.74828 115.17142 27 ft 85 kts 88°
2026-04-30 10:53 -8.74811 115.17565 29 ft 40 kts 89°
2026-04-30 10:53 -8.74789 115.17776 28 ft 16 kts 50°
2026-04-30 10:53 -8.74728 115.17786 30 ft 7 kts 358°
2026-04-30 10:54 -8.74688 115.17786 32 ft 5 kts 358°
2026-04-30 10:54 -8.74658 115.17773 32 ft 5 kts 320°
2026-04-30 10:54 -8.74640 115.17731 33 ft 9 kts 275°
2026-04-30 10:54 -8.74640 115.17647 33 ft 14 kts 267°
2026-04-30 10:55 -8.74645 115.17543 32 ft 16 kts 267°
2026-04-30 10:55 -8.74650 115.17431 32 ft 14 kts 267°
2026-04-30 10:55 -8.74654 115.17332 32 ft 15 kts 268°
2026-04-30 10:55 -8.74658 115.17224 32 ft 16 kts 267°
2026-04-30 10:56 -8.74663 115.17108 32 ft 16 kts 267°
2026-04-30 10:56 -8.74668 115.16992 32 ft 17 kts 268°
2026-04-30 10:56 -8.74672 115.16894 32 ft 10 kts 268°
2026-04-30 10:56 -8.74639 115.16872 32 ft 6 kts 354°
2026-04-30 10:57 -8.74592 115.16869 33 ft 7 kts 357°
2026-04-30 10:57 -8.74549 115.16868 33 ft 0 kts 359°
2026-04-30 10:57 -8.74545 115.16868 33 ft 0 kts 359°